DW7013 Weather Reports


time (UTC)temp
C
wind
direction
speed
KPH
gust
KPH
rain 1hr
cm
rain 24hr
cm
rain mn
cm
humidity
%
barometer
mb
20260502130718 23 347 8.0 17.7 0.00 0.00 0.00 40 1020.8
20260502130220 23 304 1.6 11.3 0.00 0.00 0.00 41 1020.8
20260502122722 23 177 0.0 6.4 0.00 0.00 0.00 35 1021.2
20260502122223 23 49 0.0 9.7 0.00 0.00 0.00 35 1021.2
20260502121719 23 138 0.0 9.7 0.00 0.00 0.00 34 1021.3
20260502121240 22 170 0.0 11.3 0.00 0.00 0.00 33 1021.3
20260502120715 22 200 0.0 11.3 0.00 0.00 0.00 37 1021.5
20260502120227 22 301 1.6 14.5 0.00 0.00 0.00 34 1021.5
20260502115716 22 209 4.8 14.5 0.00 0.00 0.00 34 1021.7
20260502115222 22 253 4.8 14.5 0.00 0.00 0.00 34 1021.7
20260502114718 22 309 4.8 14.5 0.00 0.00 0.00 36 1021.7
20260502113724 22 163 0.0 16.1 0.00 0.00 0.00 35 1021.9
20260502113217 22 236 3.2 16.1 0.00 0.00 0.00 38 1021.9
20260502112726 22 187 3.2 14.5 0.00 0.00 0.00 37 1022.0
20260502112207 22 128 0.0 12.9 0.00 0.00 0.00 39 1022.0
20260502111726 22 229 1.6 12.9 0.00 0.00 0.00 38 1022.0
20260502111209 22 169 3.2 12.9 0.00 0.00 0.00 36 1022.1
20260502110758 21 124 1.6 11.3 0.00 0.00 0.00 36 1022.1
20260502110233 21 5 1.6 16.1 0.00 0.00 0.00 36 1022.2
20260502105722 21 199 1.6 16.1 0.00 0.00 0.00 39 1022.3
20260502105221 21 133 4.8 16.1 0.00 0.00 0.00 39 1022.3
20260502104724 21 214 6.4 14.5 0.00 0.00 0.00 40 1022.4
20260502104225 21 167 4.8 14.5 0.00 0.00 0.00 39 1022.4
20260502103719 21 171 3.2 11.3 0.00 0.00 0.00 43 1022.4
20260502103220 21 141 1.6 11.3 0.00 0.00 0.00 41 1022.4
20260502102717 21 191 1.6 9.7 0.00 0.00 0.00 43 1022.5
20260502102232 21 135 3.2 9.7 0.00 0.00 0.00 43 1022.5
20260502101232 21 165 0.0 9.7 0.00 0.00 0.00 46 1022.7
20260502100726 21 144 0.0 9.7 0.00 0.00 0.00 48 1022.8
20260502100223 20 130 1.6 11.3 0.00 0.00 0.00 49 1022.8
20260502091210 19 168 3.2 11.3 0.00 0.00 0.00 51 1023.4
20260502090219 18 193 1.6 9.7 0.00 0.00 0.00 50 1023.5
20260502071215 15 290 0.0 0.0 0.00 0.00 0.00 55 1023.7
20260502070718 14 333 0.0 0.0 0.00 0.00 0.00 54 1023.7
20260502070220 14 333 0.0 0.0 0.00 0.00 0.00 57 1023.8
20260502065719 13 333 0.0 0.0 0.00 0.00 0.00 58 1023.8
20260502065209 13 333 0.0 0.0 0.00 0.00 0.00 59 1023.9
20260502064747 12 333 0.0 0.0 0.00 0.00 0.00 64 1023.8
20260502063715 11 333 0.0 0.0 0.00 0.00 0.00 66 1023.8
20260502063218 11 333 0.0 0.0 0.00 0.00 0.00 66 1023.8
20260502062717 11 333 0.0 0.0 0.00 0.00 0.00 68 1023.8
20260502062226 10 333 0.0 0.0 0.00 0.00 0.00 67 1023.8
20260502061727 10 333 0.0 0.0 0.00 0.00 0.00 68 1023.9
20260502061222 10 333 0.0 0.0 0.00 0.00 0.00 70 1023.9
20260502060710 10 333 0.0 0.0 0.00 0.00 0.00 70 1023.9
20260502060219 9 333 0.0 0.0 0.00 0.00 0.00 69 1023.9
20260502055719 9 333 0.0 0.0 0.00 0.00 0.00 69 1023.9
20260502055223 9 333 0.0 0.0 0.00 0.00 0.00 69 1023.8
20260502054720 9 333 0.0 0.0 0.00 0.00 0.00 69 1023.9
20260502053724 8 333 0.0 0.0 0.00 0.00 0.00 69 1024.0
20260502053218 8 333 0.0 0.0 0.00 0.00 0.00 69 1023.9
20260502052717 8 333 0.0 0.0 0.00 0.00 0.00 68 1023.9
20260502052210 8 333 0.0 0.0 0.00 0.00 0.00 68 1023.9
20260502051220 8 333 0.0 0.0 0.00 0.00 0.00 69 1023.8
20260502050722 8 333 0.0 0.0 0.00 0.00 0.00 68 1023.7
20260502050218 8 333 0.0 0.0 0.00 0.00 0.00 67 1023.8
20260502045721 8 333 0.0 0.0 0.00 0.00 0.00 68 1023.7
20260502045227 8 333 0.0 0.0 0.00 0.00 0.00 67 1023.6
20260502044718 8 333 0.0 0.0 0.00 0.00 0.00 68 1023.6
20260502044217 8 333 0.0 0.0 0.00 0.00 0.00 67 1023.6
20260502043720 8 333 0.0 0.0 0.00 0.00 0.00 67 1023.7
20260502043207 8 169 0.0 0.0 0.00 0.00 0.00 67 1023.7
20260502042719 8 140 0.0 0.0 0.00 0.00 0.00 67 1023.6
20260502042223 8 140 0.0 0.0 0.00 0.00 0.00 67 1023.7
20260502041718 8 140 0.0 0.0 0.00 0.00 0.00 67 1023.6
20260502041232 8 140 0.0 0.0 0.00 0.00 0.00 67 1023.6
20260502040719 8 140 0.0 0.0 0.00 0.00 0.00 66 1023.6
20260502040217 8 140 0.0 0.0 0.00 0.00 0.00 66 1023.6
20260502035720 8 140 0.0 0.0 0.00 0.00 0.00 66 1023.6
20260502035224 8 140 0.0 0.0 0.00 0.00 0.00 66 1023.6
20260502034713 8 140 0.0 0.0 0.00 0.00 0.00 66 1023.6
20260502034223 8 140 0.0 0.0 0.00 0.00 0.00 66 1023.6
20260502033726 8 140 0.0 0.0 0.00 0.00 0.00 65 1023.6
20260502033211 8 140 0.0 0.0 0.00 0.00 0.00 65 1023.6
20260502032721 8 140 0.0 0.0 0.00 0.00 0.00 65 1023.6
20260502032212 8 140 0.0 0.0 0.00 0.00 0.00 65 1023.6
20260502031723 8 140 0.0 0.0 0.00 0.00 0.00 65 1023.6
20260502031225 8 140 0.0 0.0 0.00 0.00 0.00 65 1023.6
20260502030721 8 140 0.0 0.0 0.00 0.00 0.00 65 1023.6
20260502030226 8 140 0.0 0.0 0.00 0.00 0.00 66 1023.6
20260502025721 8 140 0.0 0.0 0.00 0.00 0.00 66 1023.7
20260502024719 8 140 0.0 0.0 0.00 0.00 0.00 65 1023.7
20260502024234 8 140 0.0 0.0 0.00 0.00 0.00 64 1023.8
20260502023712 8 140 0.0 0.0 0.00 0.00 0.00 65 1023.8
20260502023224 8 140 0.0 0.0 0.00 0.00 0.00 65 1023.8
20260502022722 8 140 0.0 0.0 0.00 0.00 0.00 65 1023.8
20260502022224 8 140 0.0 0.0 0.00 0.00 0.00 65 1023.8
20260502021214 8 140 0.0 0.0 0.00 0.00 0.00 64 1023.8
20260502020724 8 140 0.0 0.0 0.00 0.00 0.00 64 1023.8
20260502020217 8 140 0.0 0.0 0.00 0.00 0.00 64 1023.8
20260502015720 8 140 0.0 0.0 0.00 0.00 0.00 64 1023.8
20260502015221 8 140 0.0 0.0 0.00 0.00 0.00 64 1023.9
20260502012706 8 140 0.0 0.0 0.00 0.00 0.00 63 1024.0
20260502012215 8 140 0.0 0.0 0.00 0.00 0.00 63 1023.9
20260502011719 8 140 0.0 0.0 0.00 0.00 0.00 63 1023.9
20260502010719 8 140 0.0 0.0 0.00 0.00 0.00 63 1024.0
20260502010221 8 140 0.0 0.0 0.00 0.00 0.00 62 1024.0
20260502005727 8 140 0.0 0.0 0.00 0.00 0.00 62 1024.0
20260502005229 8 140 0.0 0.0 0.00 0.00 0.00 62 1024.0
20260502004725 8 140 0.0 0.0 0.00 0.00 0.00 62 1024.1
20260502004222 8 140 0.0 0.0 0.00 0.00 0.00 62 1024.1
20260502003723 8 140 0.0 0.0 0.00 0.00 0.00 62 1024.1
20260502003229 8 140 0.0 0.0 0.00 0.00 0.00 62 1024.1
20260502002725 8 140 0.0 0.0 0.00 0.00 0.00 62 1024.1
20260502002208 8 140 0.0 0.0 0.00 0.00 0.00 61 1024.3
20260502001718 9 140 0.0 0.0 0.00 0.00 0.00 61 1024.3
20260502000721 9 140 0.0 0.0 0.00 0.00 0.00 62 1024.4
20260501235222 9 140 0.0 0.0 0.00 0.00 0.00 61 1024.5
20260501234215 9 140 0.0 0.0 0.00 0.00 0.00 60 1024.5
20260501233718 9 140 0.0 0.0 0.00 0.00 0.00 60 1024.5
20260501233219 9 140 0.0 0.0 0.00 0.00 0.00 60 1024.5
20260501232726 9 140 0.0 0.0 0.00 0.00 0.00 60 1024.5
20260501232214 9 140 0.0 0.0 0.00 0.00 0.00 59 1024.5
20260501231711 9 140 0.0 0.0 0.00 0.00 0.00 59 1024.5
20260501231221 9 140 0.0 0.0 0.00 0.00 0.00 58 1024.5
20260501230717 9 140 0.0 0.0 0.00 0.00 0.00 58 1024.5
20260501230220 9 140 0.0 0.0 0.00 0.00 0.00 58 1024.5
20260501225716 9 141 0.0 0.0 0.00 0.00 0.00 58 1024.6
20260501225220 9 142 0.0 0.0 0.00 0.00 0.00 59 1024.6
20260501224733 9 123 0.0 0.0 0.00 0.00 0.00 57 1024.5
20260501224221 9 123 0.0 0.0 0.00 0.00 0.00 57 1024.6
20260501223715 9 123 0.0 0.0 0.00 0.00 0.00 58 1024.5
20260501223215 9 148 0.0 0.0 0.00 0.00 0.00 58 1024.5
20260501222714 9 63 0.0 0.0 0.00 0.00 0.00 57 1024.6
20260501222221 9 65 0.0 0.0 0.00 0.00 0.00 57 1024.6
20260501221722 9 65 0.0 0.0 0.00 0.00 0.00 57 1024.5
20260501221215 9 65 0.0 0.0 0.00 0.00 0.00 57 1024.5
20260501220729 10 59 0.0 0.0 0.00 0.00 0.00 56 1024.5
20260501215707 10 59 0.0 0.0 0.00 0.00 0.00 56 1024.5
20260501215223 10 59 0.0 0.0 0.00 0.00 0.00 56 1024.4
20260501214715 10 59 0.0 0.0 0.00 0.00 0.00 56 1024.5
20260501214216 10 59 0.0 0.0 0.00 0.00 0.00 55 1024.5
20260501213227 10 59 0.0 0.0 0.00 0.00 0.00 55 1024.5
20260501211717 10 59 0.0 0.0 0.00 0.00 0.00 55 1024.6
20260501211228 10 59 0.0 0.0 0.00 0.00 0.00 55 1024.5
20260501210720 10 57 0.0 0.0 0.00 0.00 0.00 54 1024.5
20260501210221 10 57 0.0 0.0 0.00 0.00 0.00 55 1024.4
20260501205725 10 136 0.0 0.0 0.00 0.00 0.00 54 1024.4
20260501205219 10 136 0.0 0.0 0.00 0.00 0.00 54 1024.5
20260501204722 10 137 0.0 0.0 0.00 0.00 0.00 54 1024.5
20260501204211 10 126 0.0 0.0 0.00 0.00 0.00 54 1024.5
20260501203729 10 131 0.0 0.0 0.00 0.00 0.00 53 1024.4
20260501203217 11 131 0.0 0.0 0.00 0.00 0.00 53 1024.5
20260501202716 11 131 0.0 0.0 0.00 0.00 0.00 52 1024.5
20260501202215 11 131 0.0 0.0 0.00 0.00 0.00 52 1024.5
20260501201731 11 131 0.0 0.0 0.00 0.00 0.00 51 1024.5
20260501201232 11 130 0.0 0.0 0.00 0.00 0.00 50 1024.5
20260501200716 11 131 0.0 0.0 0.00 0.00 0.00 50 1024.5
20260501200219 12 131 0.0 0.0 0.00 0.00 0.00 49 1024.4
20260501195715 12 131 0.0 0.0 0.00 0.00 0.00 49 1024.4
20260501195220 12 131 0.0 0.0 0.00 0.00 0.00 50 1024.4
20260501194207 12 19 0.0 0.0 0.00 0.00 0.00 47 1024.3
20260501193706 12 19 0.0 0.0 0.00 0.00 0.00 48 1024.3
20260501193215 12 19 0.0 0.0 0.00 0.00 0.00 47 1024.3
20260501192726 13 19 0.0 0.0 0.00 0.00 0.00 47 1024.3
20260501192213 13 19 0.0 0.0 0.00 0.00 0.00 46 1024.3
20260501191731 13 19 0.0 0.0 0.00 0.00 0.00 46 1024.3
20260501191222 13 19 0.0 0.0 0.00 0.00 0.00 46 1024.3
20260501190712 13 19 0.0 0.0 0.00 0.00 0.00 45 1024.3
20260501190220 13 17 0.0 0.0 0.00 0.00 0.00 45 1024.3
20260501185720 13 15 0.0 0.0 0.00 0.00 0.00 44 1024.1
20260501185227 14 13 0.0 0.0 0.00 0.00 0.00 46 1024.0
20260501184714 14 13 0.0 0.0 0.00 0.00 0.00 44 1024.0
20260501184227 14 13 0.0 0.0 0.00 0.00 0.00 47 1023.9
20260501183216 15 9 0.0 0.0 0.00 0.00 0.00 46 1023.9
20260501182218 15 5 0.0 0.0 0.00 0.00 0.00 50 1023.8
20260501181209 15 5 0.0 0.0 0.00 0.00 0.00 49 1023.7
20260501180723 16 5 0.0 0.0 0.00 0.00 0.00 51 1023.7
20260501180228 16 349 0.0 0.0 0.00 0.00 0.00 51 1023.7
20260501175729 16 347 0.0 0.0 0.00 0.00 0.00 50 1023.6
20260501175225 16 347 0.0 0.0 0.00 0.00 0.00 50 1023.7
20260501174731 16 346 0.0 0.0 0.00 0.00 0.00 49 1023.6
20260501173714 17 355 0.0 0.0 0.00 0.00 0.00 47 1023.5
20260501172729 18 10 0.0 0.0 0.00 0.00 0.00 44 1023.5
20260501172219 18 338 0.0 0.0 0.00 0.00 0.00 43 1023.4
20260501171715 20 317 0.0 0.0 0.00 0.00 0.00 41 1023.4
20260501171224 20 340 0.0 0.0 0.00 0.00 0.00 40 1023.4
20260501170212 21 10 0.0 0.0 0.00 0.00 0.00 37 1023.4
20260501165725 21 333 0.0 0.0 0.00 0.00 0.00 38 1023.4
20260501165219 21 306 0.0 0.0 0.00 0.00 0.00 39 1023.4
20260501164724 20 325 0.0 0.0 0.00 0.00 0.00 37 1023.4
20260501164231 21 234 0.0 0.0 0.00 0.00 0.00 34 1023.3
20260501163729 21 286 0.0 0.0 0.00 0.00 0.00 29 1023.4
20260501163213 21 296 0.0 0.0 0.00 0.00 0.00 32 1023.4
20260501162716 21 217 0.0 0.0 0.00 0.00 0.00 37 1023.5
20260501162231 21 192 0.0 0.0 0.00 0.00 0.00 34 1023.4
20260501161726 21 185 0.0 0.0 0.00 0.00 0.00 35 1023.4
20260501161211 21 173 0.0 0.0 0.00 0.00 0.00 33 1023.4
20260501160721 21 227 0.0 0.0 0.00 0.00 0.00 32 1023.4
20260501160222 21 222 0.0 0.0 0.00 0.00 0.00 33 1023.4
20260501155724 21 305 0.0 0.0 0.00 0.00 0.00 31 1023.4
20260501155225 21 296 0.0 4.8 0.00 0.00 0.00 31 1023.4
20260501154722 21 195 0.0 4.8 0.00 0.00 0.00 34 1023.4
20260501153728 21 238 1.6 8.0 0.00 0.00 0.00 33 1023.5
20260501152716 21 243 0.0 0.0 0.00 0.00 0.00 31 1023.5
20260501152214 21 118 0.0 0.0 0.00 0.00 0.00 31 1023.6
20260501151728 21 200 0.0 4.8 0.00 0.00 0.00 32 1023.6
20260501151223 21 180 0.0 11.3 0.00 0.00 0.00 32 1023.6
20260501150712 21 235 1.6 11.3 0.00 0.00 0.00 35 1023.6
20260501150216 21 300 1.6 9.7 0.00 0.00 0.00 32 1023.6
20260501145724 21 211 0.0 6.4 0.00 0.00 0.00 34 1023.6